Wind_Speed
41 39 38 38 37 36 35 35 34 33 32 33 33 34 34 33 32 30 29 29 29 28 28 27 25 23 22 21 21 20 21 22 22 21 20 20 20 19 18 18 17 17
41 40 38 37 37 37 36 36 35 35 34 34 34 34 34 33 31 30 29 29 30 29 28 28 26 25 24 23 21 21 23 23 23 22 21 20 20 20 19 18 18 18
41 40 38 37 38 38 36 35 35 35 35 35 35 34 34 33 32 30 29 30 30 30 29 29 28 26 25 24 22 23 24 25 24 23 22 21 21 20 20 18 18 18
41 40 40 39 38 37 36 35 35 35 35 35 35 35 34 33 32 30 29 30 31 30 30 30 29 27 26 25 24 25 26 25 25 23 22 22 22 21 20 18 18 18
42 41 40 39 37 36 35 36 37 36 36 36 36 35 34 33 32 31 30 30 31 31 31 31 30 29 27 26 26 27 27 26 25 25 24 24 23 22 20 19 19 19
40 41 40 39 38 37 36 37 38 37 37 37 36 35 35 34 33 32 31 31 32 32 32 32 31 30 29 28 28 29 29 27 26 26 26 25 25 23 22 21 20 20
39 40 40 39 38 38 38 38 38 38 38 37 37 36 35 35 34 33 33 32 33 34 34 33 33 32 31 30 30 31 31 29 27 27 27 27 26 25 24 23 22 21
39 39 40 40 39 39 38 38 38 38 38 37 37 37 36 36 36 35 34 34 34 35 35 35 34 34 32 32 32 33 32 31 29 28 29 29 28 27 26 25 24 24
39 39 40 40 40 39 38 38 38 37 37 37 37 37 37 37 37 36 36 35 35 36 36 36 36 35 34 33 34 34 34 33 32 31 31 31 30 29 28 26 25 25
39 39 39 40 40 39 38 38 38 37 37 37 37 37 37 38 38 38 37 36 36 37 37 37 37 36 36 35 35 35 35 35 34 33 32 32 31 30 30 29 28 27
40 39 39 40 39 39 39 39 39 38 37 37 37 37 38 38 38 38 38 38 38 38 38 38 38 38 37 36 36 36 36 35 35 34 34 33 32 31 31 30 29 28
40 40 40 40 39 39 39 39 40 39 38 37 38 38 38 38 39 39 40 40 40 40 39 39 39 39 38 37 37 36 36 35 35 35 34 33 33 32 32 31 31 30
41 41 40 40 40 39 39 40 40 40 39 38 39 39 39 40 40 41 41 42 42 41 41 40 40 39 39 38 37 37 36 36 35 35 34 33 33 33 32 32 32 31
41 41 40 40 40 40 40 41 40 40 39 39 39 40 41 42 42 42 41 42 42 42 42 41 40 39 39 39 38 37 37 37 36 36 34 34 34 33 32 32 32 31
40 40 39 39 39 39 40 40 40 39 38 38 40 41 42 42 42 41 41 41 42 42 42 41 40 40 40 40 40 39 38 37 37 36 35 34 33 33 33 32 32 31
40 39 39 39 39 40 40 40 40 39 38 39 40 42 42 41 40 40 41 41 41 41 41 40 41 41 42 42 42 40 39 38 38 37 35 34 33 32 32 32 31 30
39 39 38 39 40 40 40 40 39 38 39 40 41 42 41 40 39 40 41 42 41 41 41 41 42 43 43 44 43 42 40 39 39 38 35 34 34 33 32 32 32 31
39 38 39 39 40 41 41 41 40 39 40 40 41 41 40 39 40 41 42 41 40 40 41 42 43 44 44 45 44 43 41 40 40 38 35 34 35 34 34 34 33 30
39 39 40 40 41 41 40 40 40 41 41 42 41 40 39 40 41 42 41 41 40 41 42 43 43 43 45 45 44 43 43 41 41 39 36 35 36 36 37 36 32 29
39 39 40 40 40 40 39 40 41 42 43 42 41 40 39 40 41 41 41 41 42 42 42 42 43 43 43 44 43 43 43 42 42 40 36 36 37 37 37 34 30 29
38 39 39 39 40 39 39 40 41 41 42 41 40 40 41 41 42 41 41 42 42 42 40 41 43 42 41 41 42 42 43 42 43 39 35 35 36 35 33 31 28 28
39 38 38 39 39 39 39 40 40 41 42 40 39 39 41 41 41 41 41 42 41 40 39 41 41 38 37 39 40 41 42 42 42 39 34 33 34 32 28 26 25 26
39 39 39 39 39 39 39 41 42 42 42 40 39 39 39 40 40 40 41 41 40 40 41 41 38 34 34 37 39 41 42 42 42 40 36 34 33 29 27 26 27 28
40 39 38 38 38 39 40 41 41 42 41 41 40 39 38 39 39 39 39 39 39 40 42 40 35 32 33 36 38 40 42 42 43 41 37 36 36 33 30 29 29 30
38 38 38 39 40 42 43 42 42 42 40 39 39 38 37 36 36 36 37 38 39 40 41 40 35 32 33 35 37 40 42 43 43 40 36 36 39 38 36 34 34 34
37 39 41 42 44 44 43 42 41 39 37 37 37 36 34 32 34 35 35 36 37 38 39 40 37 34 33 35 37 40 43 44 42 39 36 37 39 40 39 37 36 36
Wind_Direction
212 212 212 212 214 216 217 218 220 220 222 224 225 228 231 235 239 239 237 236 236 237 238 237 237 238 238 238 241 241 236 231 230 233 235 239 243 244 244 248 249 249
212 212 212 212 214 216 217 218 220 221 224 227 229 231 233 234 237 238 238 236 235 236 237 236 235 236 235 236 239 237 231 229 230 232 235 238 241 242 244 249 250 247
213 213 212 213 214 215 216 217 219 222 224 228 230 232 233 234 235 236 237 236 235 236 236 234 234 235 234 234 236 234 230 229 231 232 235 238 240 242 245 247 245 243
213 213 213 214 215 215 216 216 219 221 223 226 230 232 232 232 232 233 235 235 234 234 234 233 232 233 232 233 234 232 230 231 232 233 236 238 239 241 243 242 240 239
213 213 214 214 215 215 215 215 218 220 221 224 228 230 230 230 229 229 231 231 231 232 232 231 232 232 231 231 232 231 229 230 232 233 236 238 238 240 241 238 237 237
212 213 213 214 214 214 214 216 218 220 220 222 225 227 227 227 227 227 228 229 230 230 230 230 231 230 229 230 230 230 229 229 230 232 235 237 237 239 239 237 236 237
211 212 212 213 214 214 215 216 218 219 220 221 223 224 225 224 225 225 226 228 229 229 229 229 230 229 229 229 229 229 229 229 230 232 234 235 236 238 238 237 236 237
211 211 212 213 213 214 215 216 217 219 219 219 220 222 223 223 223 224 225 227 227 228 229 229 229 229 229 228 228 228 227 228 230 231 233 233 235 237 237 236 236 237
210 211 211 212 212 213 214 215 217 218 218 218 219 220 221 222 223 223 223 224 225 227 228 228 228 228 228 229 228 227 226 227 229 231 233 233 235 236 236 236 236 237
210 210 211 211 211 212 213 214 216 217 217 217 218 219 220 221 222 222 222 223 223 225 226 225 226 227 228 228 228 228 227 227 229 231 233 235 236 238 237 236 236 237
209 210 211 211 211 211 212 214 215 216 217 216 217 218 220 221 221 221 221 221 222 223 224 224 224 225 226 227 227 228 228 228 229 231 234 235 237 238 238 237 237 238
209 209 210 210 210 211 211 213 215 215 215 215 215 217 219 220 221 221 220 221 223 224 223 224 224 223 224 226 227 227 227 228 230 231 233 235 237 238 238 238 238 240
208 209 210 209 210 210 211 213 214 214 214 213 214 216 218 220 221 221 221 222 223 223 223 224 222 221 222 224 225 226 225 226 228 229 231 233 236 238 238 238 239 240
209 210 209 209 210 210 211 213 213 214 213 213 213 216 218 220 220 221 221 221 222 223 223 223 221 219 219 220 222 223 224 225 226 227 228 231 235 237 237 238 239 239
208 209 209 209 209 210 211 212 213 213 212 212 213 215 218 220 220 220 220 220 221 222 222 221 219 218 218 218 219 219 220 223 224 225 226 228 231 234 236 238 239 239
206 207 207 207 208 209 210 211 212 212 211 211 213 216 218 218 219 220 220 220 220 220 220 219 218 218 219 220 219 218 218 220 222 223 223 225 228 231 234 237 239 241
205 205 205 206 207 208 209 210 210 210 210 211 213 215 217 217 217 219 220 221 221 220 219 219 219 219 220 220 219 217 217 218 221 221 219 221 226 229 232 237 239 241
203 203 204 205 206 207 207 208 208 209 210 211 213 214 215 215 217 219 220 221 221 221 221 220 220 220 220 219 217 216 216 218 221 220 215 218 224 227 231 236 236 236
201 201 203 205 206 207 206 206 207 208 210 211 212 213 213 214 217 219 220 220 220 221 222 222 222 222 220 219 216 214 215 218 221 219 215 217 223 227 230 232 230 229
200 201 203 204 206 206 205 206 207 208 210 211 211 211 211 213 216 218 219 220 221 222 223 224 224 223 221 218 214 213 214 216 220 219 215 218 224 226 226 227 226 228
200 202 202 204 206 205 205 206 208 209 210 210 210 210 211 213 215 216 218 219 221 222 223 225 226 224 221 217 213 213 213 214 218 218 213 215 222 223 223 224 226 229
201 201 201 203 204 204 205 207 208 210 211 210 210 211 212 213 214 216 218 219 220 221 222 226 227 224 220 217 213 212 210 210 213 214 210 211 216 217 219 224 229 233
201 200 201 202 203 204 206 207 209 211 211 210 210 211 212 212 213 216 218 218 219 219 221 225 226 223 220 216 212 210 206 205 208 211 209 209 212 215 217 221 227 231
201 200 201 201 203 205 207 208 209 211 211 210 210 211 212 213 214 216 218 219 218 219 221 223 224 222 219 215 210 208 204 201 205 208 207 209 215 222 225 227 231 233
201 201 202 202 205 208 209 209 210 211 211 211 211 213 214 214 214 216 218 219 219 219 221 221 221 221 218 212 209 206 201 200 203 203 201 206 213 219 225 229 233 234
201 202 203 205 208 209 210 210 210 210 209 210 211 214 215 215 216 217 219 221 220 219 219 219 218 218 215 210 207 203 200 200 200 198 198 202 206 212 218 221 224 227
Height
783 785 788 791 794 796 799 801 804 806 808 810 811 813 814 816 819 821 823 824 826 827 828 830 831 832 833 835 836 837 839 840 841 843 844 845 846 846 847 848 849 849
779 782 785 788 790 793 795 798 800 803 805 807 809 810 812 814 816 818 820 822 823 824 826 827 829 830 831 832 834 835 836 838 839 841 842 843 844 845 845 846 847 848
776 779 782 784 786 789 792 795 797 799 801 804 806 808 809 811 812 815 817 819 821 822 823 825 826 827 829 830 832 833 834 836 837 839 840 841 842 843 844 845 845 846
773 775 778 781 783 786 790 792 794 796 798 800 802 804 806 808 809 811 814 816 818 819 821 822 824 825 826 828 829 831 832 834 836 837 838 839 840 841 842 843 844 844
769 772 775 778 781 784 786 788 790 792 794 796 798 801 803 804 806 807 810 813 814 816 818 819 821 822 824 825 827 828 830 832 834 835 836 837 838 839 840 841 842 843
765 768 771 775 777 780 782 783 786 788 790 792 795 797 799 801 802 804 806 809 811 813 814 816 818 820 821 823 824 825 827 830 831 833 834 835 836 837 838 839 840 841
761 764 768 771 773 776 777 779 782 784 786 789 791 793 795 797 799 800 802 805 807 809 811 813 814 816 818 820 821 823 825 827 829 831 832 833 834 835 836 837 839 840
757 760 763 766 769 771 773 776 778 780 783 785 787 789 791 793 795 797 799 801 803 805 807 809 811 813 815 817 818 820 822 824 826 828 829 830 832 833 834 835 836 837
753 756 759 761 764 767 769 772 775 777 780 782 784 786 788 790 791 793 795 797 799 801 803 805 807 810 812 813 815 817 819 821 823 825 826 828 829 830 832 833 834 835
749 751 754 756 759 762 765 768 771 774 776 778 781 783 785 786 788 790 791 793 794 796 799 801 803 806 808 810 812 814 816 818 820 822 824 826 827 828 830 831 832 832
744 747 749 751 755 758 761 765 767 769 772 774 777 779 781 783 785 786 787 788 790 791 794 796 799 802 804 806 808 811 813 815 817 819 821 823 825 826 827 829 830 830
738 741 744 747 750 754 757 760 762 764 767 769 772 775 777 779 780 782 782 784 785 787 789 792 794 797 800 802 805 807 810 812 814 816 818 820 822 823 825 826 827 828
732 735 739 743 746 749 752 755 757 759 761 764 767 770 772 774 775 777 778 779 781 782 785 787 790 793 795 798 801 804 806 809 811 813 815 817 819 821 823 824 825 827
727 731 735 739 742 745 747 750 752 755 757 760 763 764 766 768 769 771 773 775 777 778 780 783 785 788 791 794 797 800 803 805 807 809 811 813 816 818 820 822 823 825
723 728 731 734 738 740 743 745 748 750 753 756 758 759 761 762 765 767 769 771 772 774 776 778 781 783 785 788 792 795 798 800 802 804 807 809 812 815 817 819 821 823
719 722 726 730 732 735 738 740 743 746 749 751 752 754 756 758 761 763 765 766 768 770 772 773 775 777 780 783 786 790 794 796 798 800 802 805 809 812 814 817 819 821
714 717 721 724 727 729 732 735 739 742 744 746 747 749 751 754 757 758 760 762 763 765 767 768 769 772 775 778 781 785 789 791 793 795 798 802 805 808 811 813 815 818
708 713 716 719 721 724 727 730 734 736 738 740 742 744 747 750 752 753 754 757 759 761 762 763 764 766 770 773 777 781 784 786 788 790 793 798 801 803 806 807 809 813
703 707 710 713 715 718 722 725 728 730 731 734 736 739 742 744 745 747 749 752 754 755 756 757 759 762 765 768 772 776 780 782 785 787 790 794 796 798 800 801 805 809
699 701 704 708 710 714 718 720 722 723 725 728 731 734 736 738 740 742 744 747 748 750 752 753 755 758 761 764 769 772 776 779 781 783 786 790 792 793 795 798 802 806
694 696 700 703 706 710 713 715 717 718 720 723 725 728 729 731 734 736 738 740 742 745 748 749 751 754 757 761 765 769 772 775 778 781 784 787 789 790 793 797 800 804
688 692 695 698 701 705 707 709 712 713 715 718 720 722 723 725 728 730 732 735 737 741 744 744 746 751 755 758 762 765 769 773 775 779 782 784 786 789 792 795 798 801
683 686 689 693 696 699 700 703 705 707 710 713 715 717 718 720 722 724 727 729 732 736 738 739 743 748 751 754 758 762 766 769 772 776 779 781 784 786 788 789 791 793
678 681 685 689 692 693 694 697 699 702 705 707 710 711 713 715 718 720 723 725 727 730 731 735 740 743 746 749 753 757 762 765 768 772 775 778 780 782 783 784 786 788
674 678 681 684 685 686 688 690 693 697 700 704 706 708 710 713 715 718 719 720 722 724 726 731 735 738 740 743 748 752 757 761 764 767 771 773 775 778 779 780 781 783
670 673 675 677 677 679 682 685 689 693 697 700 703 706 709 712 713 715 715 716 718 720 722 726 730 732 734 737 742 747 752 755 759 763 766 768 770 772 773 774 776 778